TimeMST,TemperatureF,Dew PointF,Humidity,Sea Level PressureIn,VisibilityMPH,Wind Direction,Wind SpeedMPH,Gust SpeedMPH,PrecipitationIn,Events,Conditions,WindDirDegrees,DateUTC
12:54 AM,36.0,21.9,57,29.75,10.0,Calm,Calm,-,N/A,,Clear,0,2013-10-09 07:54:00
1:54 AM,36.0,21.9,57,29.73,10.0,Calm,Calm,-,N/A,,Clear,0,2013-10-09 08:54:00
2:54 AM,36.0,23.0,59,29.71,10.0,Calm,Calm,-,N/A,,Clear,0,2013-10-09 09:54:00
3:54 AM,35.1,23.0,61,29.71,10.0,Calm,Calm,-,N/A,,Clear,0,2013-10-09 10:54:00
4:54 AM,36.0,25.0,64,29.70,10.0,Calm,Calm,-,N/A,,Clear,0,2013-10-09 11:54:00
5:54 AM,43.0,26.1,51,29.67,10.0,SSE,4.6,-,N/A,,Clear,150,2013-10-09 12:54:00
6:54 AM,45.0,25.0,46,29.69,10.0,South,5.8,-,N/A,,Clear,190,2013-10-09 13:54:00
7:54 AM,50.0,25.0,38,29.70,10.0,SSE,9.2,-,N/A,,Clear,160,2013-10-09 14:54:00
8:54 AM,54.0,25.0,33,29.69,10.0,South,10.4,26.5,N/A,,Clear,170,2013-10-09 15:54:00
9:54 AM,55.9,21.9,27,29.68,10.0,South,12.7,28.8,N/A,,Clear,190,2013-10-09 16:54:00
10:54 AM,57.0,23.0,27,29.70,10.0,South,13.8,26.5,N/A,,Clear,190,2013-10-09 17:54:00
11:54 AM,60.1,21.9,23,29.69,10.0,SSW,15.0,29.9,N/A,,Clear,200,2013-10-09 18:54:00
12:54 PM,59.0,21.0,23,29.67,10.0,SSW,20.7,32.2,N/A,,Clear,210,2013-10-09 19:54:00
1:54 PM,57.9,21.0,24,29.68,10.0,SSW,19.6,33.4,N/A,,Clear,210,2013-10-09 20:54:00
2:54 PM,55.9,23.0,28,29.67,10.0,SSW,17.3,27.6,N/A,,Scattered Clouds,200,2013-10-09 21:54:00
3:54 PM,55.0,26.1,33,29.69,10.0,SSW,13.8,32.2,N/A,,Mostly Cloudy,200,2013-10-09 22:54:00
4:54 PM,54.0,28.0,37,29.68,10.0,South,12.7,26.5,N/A,,Mostly Cloudy,190,2013-10-09 23:54:00
5:54 PM,52.0,30.9,45,29.67,10.0,SW,13.8,19.6,N/A,,Partly Cloudy,220,2013-10-10 00:54:00
6:54 PM,51.1,30.0,44,29.66,10.0,SSW,11.5,20.7,N/A,,Partly Cloudy,210,2013-10-10 01:54:00
7:54 PM,48.9,34.0,56,29.65,10.0,SSW,9.2,-,N/A,,Overcast,200,2013-10-10 02:54:00
8:54 PM,48.9,35.1,59,29.63,10.0,South,6.9,-,N/A,,Overcast,170,2013-10-10 03:54:00
9:54 PM,46.0,35.1,66,29.63,10.0,South,8.1,-,0.00,,Overcast,190,2013-10-10 04:54:00
10:54 PM,48.0,34.0,58,29.59,10.0,South,15.0,23.0,0.01,,Overcast,180,2013-10-10 05:54:00
11:54 PM,46.9,26.1,44,29.58,10.0,SSW,26.5,44.9,0.00,Rain,Light Rain,210,2013-10-10 06:54:00